Theta_e
290 284 283 283 285 285 285 286 286 284 286 285 283 283 282 281 281 283 284 287 290 288 287 287 288 289 290 290 303 314 322 319 321 321 322 323 323 323 323 323 323 322 323 324 323 324 325 327 330 331 330 330 330 331 332 332 332 332 333 332 331 332 333 332 331 331 330 329 329 330 330 329 329 330 331 330 329 330 331 332 333 332 332 331 331 330
290 283 284 285 285 286 286 286 287 285 284 284 283 283 282 282 283 285 288 290 289 290 286 287 288 289 290 291 305 314 319 317 319 319 320 322 323 323 322 321 322 323 321 321 322 323 325 327 329 330 329 329 328 330 331 331 331 332 332 332 331 332 332 332 332 332 331 331 331 329 328 329 330 330 328 327 328 330 332 332 331 330 329 329 329 330
284 283 285 285 286 287 286 286 287 287 284 284 282 281 281 282 282 285 286 288 290 289 286 285 287 288 289 289 305 312 316 318 320 321 320 321 322 322 322 322 322 322 321 322 324 325 326 328 329 329 329 328 329 330 331 331 330 331 331 331 332 332 332 332 333 332 331 329 330 329 328 330 328 329 329 329 331 332 329 329 329 329 328 328 328 328
280 283 286 287 286 286 285 286 286 286 286 283 282 280 280 281 283 281 286 287 290 290 286 285 287 286 300 307 306 308 313 313 320 321 321 322 321 321 321 322 322 322 321 321 323 324 326 327 329 329 329 329 329 330 330 330 330 330 331 330 332 332 332 332 334 333 332 331 329 330 330 328 328 328 331 329 328 328 327 326 327 327 327 327 327 327
281 285 289 288 287 287 284 285 285 284 283 284 283 279 281 283 283 282 284 286 287 289 287 285 284 282 292 301 302 306 309 309 315 320 321 322 322 323 322 322 323 323 323 322 323 324 325 326 328 328 329 330 329 330 331 331 330 331 330 331 332 332 333 333 334 333 332 331 329 329 329 330 329 329 327 326 325 326 328 326 325 325 327 327 327 326
284 287 289 288 286 286 285 283 285 285 280 282 283 284 283 283 285 284 285 284 281 285 284 288 280 279 280 291 300 303 307 307 309 315 317 320 321 322 321 321 322 323 324 323 323 324 325 326 328 329 329 329 329 330 331 332 330 330 330 331 332 332 333 333 333 333 332 330 328 327 327 326 326 324 323 323 323 324 323 323 324 326 326 327 326 326
284 288 289 288 286 285 285 284 284 287 281 281 282 285 285 284 285 285 286 284 279 279 286 288 282 276 278 291 298 305 307 308 310 313 315 318 320 321 321 322 321 321 322 323 324 325 325 326 327 328 329 329 329 330 332 331 329 330 331 331 332 332 332 333 333 333 331 329 329 328 327 327 326 325 323 325 325 324 323 324 324 324 325 325 325 324
287 287 286 288 287 285 284 283 284 287 283 280 283 286 286 285 284 284 285 283 278 283 285 284 283 279 278 282 294 304 306 307 309 311 313 316 318 319 321 322 322 322 323 323 323 325 326 327 327 327 329 330 330 330 331 330 330 331 331 331 332 332 332 332 332 332 331 329 328 327 327 327 326 326 325 325 324 324 325 324 324 324 323 324 324 323
288 285 285 285 286 285 284 285 285 287 284 281 285 287 286 286 284 283 285 282 282 283 280 278 286 281 277 283 302 306 304 306 307 309 311 314 317 319 320 322 323 323 323 324 323 324 325 326 327 328 329 330 330 330 330 330 331 331 331 332 332 332 332 332 332 331 330 330 328 328 327 326 326 326 325 326 327 324 324 323 322 322 322 322 322 322
288 289 287 287 286 284 286 286 287 288 285 286 286 287 287 286 285 286 283 284 282 280 275 280 283 279 277 283 301 307 304 303 305 309 311 313 316 318 319 321 322 323 323 324 324 325 326 327 328 329 329 329 330 331 331 331 332 331 331 331 331 331 332 331 331 331 329 329 328 327 327 326 326 326 324 324 323 322 322 321 321 321 321 320 320 320
287 294 293 289 286 287 289 287 288 288 288 286 288 286 283 283 284 285 281 282 279 274 277 281 282 282 278 281 296 300 302 306 306 307 311 313 315 317 319 320 321 322 322 323 324 325 326 328 328 328 328 329 330 331 331 331 332 332 331 331 331 332 332 331 330 329 327 328 328 327 326 326 325 324 323 322 322 321 321 320 319 319 319 319 319 320
287 288 289 288 293 291 292 287 288 291 288 289 284 283 282 281 279 282 279 279 275 270 276 279 284 282 278 276 290 304 307 308 307 306 309 311 312 315 318 320 321 322 322 323 324 324 326 326 327 327 327 328 330 331 331 331 332 332 331 331 331 332 331 330 328 327 327 327 327 328 328 327 326 324 323 322 321 321 320 319 319 318 318 318 318 317
283 283 286 289 296 291 289 287 285 288 286 287 284 283 281 274 274 272 277 273 271 274 279 279 283 281 280 283 288 300 306 308 310 309 309 311 312 314 317 319 321 322 322 322 323 324 325 325 325 326 327 328 329 330 331 331 331 332 332 332 330 330 331 329 328 327 326 326 327 328 328 328 327 325 324 323 322 321 320 319 318 318 317 317 317 317
281 285 286 287 289 294 291 285 282 282 284 284 284 281 278 273 272 268 270 271 274 278 280 280 283 280 280 285 289 291 296 308 311 312 311 311 312 314 317 319 320 321 322 323 323 324 325 325 326 326 327 328 329 330 331 332 331 332 332 331 331 331 331 329 326 326 326 325 327 328 328 328 327 325 324 323 322 321 320 320 319 318 317 317 316 316
275 276 282 285 283 292 291 290 288 283 283 283 283 284 279 274 272 267 273 270 274 277 279 281 281 277 280 286 298 298 299 301 310 310 310 312 313 315 318 319 320 321 322 323 323 324 325 326 326 326 327 327 329 331 332 332 332 332 332 331 331 330 330 328 327 326 325 325 326 327 328 328 327 325 324 323 323 321 320 319 318 317 317 317 315 316
280 279 282 288 288 291 289 290 289 286 284 284 283 284 280 282 277 275 274 276 276 278 276 280 278 281 285 288 296 303 302 304 310 310 312 312 314 316 317 318 319 320 321 323 323 324 325 325 325 325 326 327 329 331 332 332 332 332 332 332 331 329 329 328 327 326 326 325 325 327 327 327 326 325 324 323 322 320 320 319 318 317 317 316 316 316
280 278 284 289 288 290 290 291 289 290 280 283 284 282 283 285 281 274 274 279 275 275 274 274 281 283 284 289 292 304 304 306 308 310 311 311 313 315 315 317 319 320 321 322 323 324 325 325 325 325 325 327 329 330 332 332 332 332 332 331 330 329 328 327 326 325 325 324 324 326 327 326 325 323 323 322 320 319 319 319 319 318 317 317 317 317
279 278 284 287 285 288 292 293 290 291 288 284 281 281 286 288 285 280 275 271 269 271 271 278 279 280 281 281 293 300 304 307 308 308 310 310 312 313 315 317 318 319 321 323 325 325 325 324 324 325 325 328 329 330 332 332 333 333 333 332 329 328 327 327 326 324 323 323 324 325 325 325 324 323 323 321 319 319 319 318 318 318 317 317 317 317
284 278 282 287 288 288 290 292 288 289 290 288 286 287 286 277 278 278 275 272 271 271 269 279 278 277 279 282 288 294 301 305 308 309 310 311 312 314 316 317 319 320 321 322 324 324 325 323 323 322 326 329 329 331 333 333 333 333 332 331 329 328 327 326 325 324 323 324 324 324 323 322 322 322 321 320 320 319 319 318 317 317 316 316 317 317
285 277 280 285 288 287 288 289 281 285 287 289 289 287 287 282 277 278 278 276 279 270 270 275 277 279 283 282 290 295 301 305 308 309 310 312 313 314 316 317 318 319 320 322 324 324 325 324 323 324 327 328 329 330 332 332 333 332 331 330 329 328 327 326 324 323 322 322 322 321 321 321 321 321 321 320 319 319 318 318 317 316 315 315 315 314
280 281 274 282 288 287 282 285 285 285 283 282 283 282 284 286 284 283 282 281 279 269 267 271 274 277 282 286 291 295 300 306 309 309 310 312 313 315 316 317 318 319 320 323 324 324 324 325 325 327 329 330 330 330 332 332 332 331 330 329 328 326 325 324 323 322 321 321 320 320 320 320 320 320 320 320 319 319 318 317 317 317 317 316 314 313
281 280 277 281 282 282 284 287 286 287 288 284 282 280 282 280 280 280 276 279 278 280 273 271 274 277 285 292 295 297 300 307 310 310 309 311 314 315 316 318 318 319 320 323 324 324 325 325 326 328 330 330 329 330 330 330 331 330 329 329 327 326 325 323 322 322 320 320 320 319 319 319 319 319 319 318 318 318 318 317 317 317 317 315 313 313
284 282 279 278 282 282 284 287 289 290 289 286 287 283 285 282 280 278 272 277 280 280 280 278 273 281 287 291 295 298 301 304 306 308 307 310 314 315 317 318 319 320 321 323 324 325 325 326 327 328 329 329 329 329 330 329 330 329 329 328 327 325 324 323 322 321 320 319 318 318 318 318 318 318 318 318 318 317 317 316 316 316 315 313 312 311
296 283 279 279 281 286 286 287 289 290 289 285 286 284 284 284 282 280 276 277 280 279 279 277 276 274 284 292 294 296 299 304 307 309 308 310 312 315 316 317 318 319 320 323 325 325 325 326 327 328 328 329 329 329 329 329 329 329 328 327 326 324 322 321 321 320 319 318 317 317 317 317 317 317 318 317 317 316 315 315 314 315 314 312 310 309
282 281 280 276 277 280 283 285 285 287 288 284 283 284 285 284 283 282 281 280 279 279 281 277 274 273 285 293 295 298 303 306 307 306 309 309 311 314 316 317 318 319 320 322 323 324 325 325 326 327 328 328 328 329 329 329 328 328 327 326 325 323 322 321 320 319 318 317 316 316 316 315 316 317 317 316 315 314 314 313 313 313 311 310 308 307
285 281 280 274 275 273 273 274 277 280 283 282 284 284 284 285 284 284 280 280 278 280 280 277 273 281 285 291 296 300 302 301 304 306 306 309 311 313 314 316 317 318 320 321 323 323 323 325 326 327 327 328 328 328 328 328 328 327 326 326 325 322 321 320 320 319 317 316 316 315 315 315 316 316 315 315 313 312 312 312 312 311 310 308 306 305
287 287 285 280 278 278 278 281 284 284 282 282 281 285 284 284 286 285 280 278 279 276 279 279 282 282 288 292 293 297 300 303 304 306 307 308 310 312 314 316 317 318 320 321 322 323 324 324 325 326 327 328 327 328 328 328 327 326 325 324 323 322 321 320 319 318 317 316 315 315 315 315 315 315 314 313 311 311 310 310 309 309 307 307 305 304
288 283 284 284 282 283 282 282 285 288 283 281 282 283 284 285 284 284 280 278 282 282 277 280 282 287 288 289 292 294 298 300 302 303 306 308 309 312 314 316 314 318 320 322 322 323 323 324 325 325 326 325 326 327 327 328 326 326 325 323 322 321 320 319 318 318 317 316 315 315 315 314 314 314 313 311 310 309 308 307 307 306 306 305 304 304
287 282 283 285 284 285 285 284 286 287 286 283 284 283 283 284 283 284 283 281 285 281 280 283 284 287 287 290 293 295 298 301 302 303 305 308 310 312 314 315 316 318 320 321 322 322 323 323 324 325 325 326 326 325 325 326 325 324 323 322 321 321 320 319 318 317 317 316 315 315 314 314 314 313 311 309 308 307 306 305 304 304 304 304 303 303
289 283 285 286 285 286 285 285 285 287 283 284 284 284 284 283 284 285 284 281 286 285 283 283 286 289 291 291 294 297 300 301 304 307 309 309 310 312 314 315 316 318 319 321 321 322 323 323 324 325 325 325 326 326 325 324 324 323 322 321 320 320 319 319 318 317 316 315 315 315 315 314 314 312 310 308 307 305 304 304 303 303 302 302 301 301
288 281 290 285 284 285 287 287 285 286 285 284 283 284 284 285 284 283 283 283 287 285 286 284 286 288 292 292 296 300 301 307 308 308 308 309 310 312 313 315 316 317 319 321 322 322 323 323 324 325 324 325 325 326 325 324 323 323 321 320 320 319 319 319 317 317 316 315 315 315 315 314 312 311 309 307 306 304 303 303 302 301 300 300 300 300
289 281 285 283 281 281 286 284 283 285 286 284 282 281 282 283 283 282 283 285 285 285 286 288 289 289 290 300 301 301 305 307 306 307 308 309 310 311 313 315 316 317 319 320 321 322 322 323 323 324 324 325 325 325 324 323 322 321 320 320 319 319 319 318 317 316 315 315 315 315 314 313 312 310 308 307 305 304 303 302 301 300 299 299 299 300
286 283 282 276 279 275 283 284 283 283 283 281 280 283 283 283 282 283 285 287 286 287 286 283 287 291 291 299 300 300 302 303 305 307 308 310 310 312 313 314 316 317 318 319 320 321 322 323 324 324 325 325 325 325 324 324 322 320 320 319 319 318 317 317 316 316 315 315 315 315 314 312 311 309 307 307 305 304 302 301 300 299 299 298 299 298
287 286 283 281 280 277 283 283 283 282 273 273 281 283 286 286 285 285 284 287 287 289 288 290 290 292 296 299 301 301 300 302 305 308 312 313 311 311 313 314 315 316 317 319 319 320 322 323 324 325 325 326 326 326 324 323 322 321 321 319 318 318 317 316 315 315 314 315 315 315 313 312 310 308 307 306 305 303 302 301 299 299 299 299 298 297
286 284 283 280 280 280 281 282 280 273 272 283 286 287 287 290 287 287 286 286 286 288 289 290 292 294 299 299 300 301 302 304 306 309 309 312 313 313 313 314 315 316 317 318 318 318 320 321 323 323 324 325 325 324 323 322 321 320 319 318 317 317 316 316 315 315 315 314 315 314 312 311 310 308 307 305 304 303 302 301 299 299 299 298 297 296
283 285 281 281 279 278 277 277 274 272 281 286 291 293 291 288 286 288 286 287 289 289 290 289 291 295 300 299 301 301 304 305 306 305 307 311 314 314 314 314 315 316 316 317 318 317 317 319 321 322 323 324 323 323 323 321 320 319 317 318 317 316 316 315 315 314 314 314 314 313 312 311 309 308 306 304 303 303 301 300 299 298 298 297 295 295
291 288 284 282 282 279 277 273 277 282 287 288 288 292 291 290 285 286 280 283 288 290 291 292 294 296 299 300 303 304 303 302 302 305 306 311 313 315 317 317 317 317 317 315 316 315 315 317 320 321 323 323 323 322 322 320 318 316 316 315 315 315 315 315 314 314 314 313 313 313 312 311 309 307 305 303 303 302 301 300 298 298 298 295 294 294
291 286 284 285 282 280 281 277 278 279 276 283 290 292 294 295 292 288 284 286 291 290 293 293 295 296 300 302 303 302 301 300 298 301 305 309 313 314 313 314 315 314 314 314 313 313 314 316 318 321 323 322 322 322 320 318 316 314 314 314 314 314 313 312 313 314 313 313 313 313 312 310 308 306 304 303 302 301 300 299 298 297 298 295 294 293
291 288 287 284 282 281 280 279 274 274 278 283 288 293 294 294 295 290 286 282 285 291 294 295 297 298 301 303 304 302 299 294 296 298 305 310 311 313 313 311 314 314 314 314 314 313 313 316 319 320 321 320 319 318 318 316 314 313 313 313 313 314 312 313 313 313 313 313 313 313 311 309 307 305 304 303 302 301 299 298 298 298 297 296 295 294
288 283 282 283 280 277 276 276 278 277 283 292 291 293 297 295 293 287 281 276 287 290 291 295 299 300 301 301 304 304 300 291 296 300 302 311 312 310 313 312 312 313 312 312 312 313 314 315 316 317 319 319 317 317 317 316 314 313 312 313 313 313 312 313 313 314 314 313 312 311 309 308 306 305 304 302 301 301 300 299 298 296 296 295 294 293
281 281 281 280 278 278 278 277 278 282 288 291 292 298 299 296 288 281 276 283 288 290 293 295 298 300 303 305 305 301 303 298 300 301 304 309 310 309 309 311 314 313 313 313 311 309 314 316 318 318 318 318 316 316 317 316 315 312 312 312 311 312 314 314 314 312 313 312 311 309 308 307 306 304 303 302 301 300 299 299 297 296 295 294 294 293
281 279 279 278 278 279 274 277 279 281 288 294 297 299 297 290 281 276 284 289 294 298 296 296 299 301 304 307 304 300 300 297 299 302 306 310 312 311 310 310 312 311 311 309 308 312 314 315 316 316 316 316 315 316 316 316 314 313 312 311 312 313 314 311 310 311 310 310 309 308 307 307 306 304 303 302 301 299 298 298 298 296 295 294 294 293
282 279 278 277 278 276 272 277 278 281 289 297 299 295 295 286 284 287 293 296 295 297 297 296 300 302 305 305 299 296 298 301 301 303 305 306 308 309 310 309 311 311 310 310 311 313 315 315 315 315 315 315 315 316 316 316 314 313 312 311 310 309 309 310 310 310 310 309 308 307 306 305 304 304 303 301 301 299 297 297 297 296 295 294 293 293
285 279 277 277 278 278 274 277 281 286 291 296 295 290 297 295 299 294 297 298 297 296 296 294 297 302 304 304 301 297 300 303 304 303 303 304 305 306 306 307 308 308 309 310 313 313 314 315 315 313 313 314 314 315 315 315 313 311 310 309 309 310 310 310 310 310 309 307 306 306 306 305 305 304 302 301 299 298 296 296 296 296 295 294 294 292
290 284 280 283 284 281 281 283 288 290 295 296 297 298 296 300 298 297 297 299 299 298 299 297 298 299 303 303 299 299 301 300 302 303 303 303 304 305 305 306 308 309 309 310 312 312 314 315 313 312 311 313 313 314 314 315 313 309 308 308 309 309 310 309 309 309 307 306 306 306 306 305 304 302 301 300 299 297 296 295 295 294 294 294 293 292
292 292 289 292 292 295 295 294 297 296 296 298 297 296 297 300 300 298 299 298 299 298 298 298 298 300 302 303 305 300 300 302 302 301 303 305 306 304 304 304 305 307 309 311 312 313 314 313 312 311 310 310 312 311 310 310 310 308 307 308 309 309 309 309 308 307 306 306 305 305 305 304 302 301 300 299 299 298 297 295 295 294 293 293 293 292
290 292 289 291 294 288 288 292 295 297 296 298 298 300 300 299 298 298 299 298 298 298 299 299 299 302 304 302 302 302 301 302 303 304 306 308 309 307 305 304 304 307 310 311 312 311 312 311 310 309 309 309 309 309 309 308 308 308 308 309 309 309 309 309 307 306 305 305 305 305 304 302 301 300 299 299 299 299 298 297 296 294 293 293 292 291
289 293 289 287 285 283 288 294 297 296 297 298 296 297 298 299 300 299 298 299 299 300 300 299 302 304 302 304 301 304 303 303 306 307 309 309 309 309 308 306 305 307 307 308 308 311 311 311 309 308 308 308 308 308 308 307 307 308 309 309 309 310 309 307 305 306 306 306 305 304 303 302 295 298 299 298 298 297 296 296 295 294 293 292 292 291
291 293 288 288 289 292 294 296 295 297 299 299 299 297 297 297 298 300 300 301 301 302 303 304 301 300 302 303 303 306 306 305 307 308 309 308 308 309 309 307 305 305 306 308 308 309 311 310 309 308 308 308 308 308 307 307 308 308 308 309 309 309 308 306 303 305 305 305 305 303 301 301 299 299 298 298 297 297 297 296 295 294 294 294 294 293
290 287 290 291 290 288 289 292 295 291 291 295 297 298 298 299 299 301 302 302 301 301 301 305 305 304 303 302 304 304 304 305 306 308 308 308 308 307 306 307 306 305 304 304 306 307 309 310 309 308 308 307 308 307 307 307 307 308 309 309 309 309 307 304 305 305 305 305 304 302 300 299 300 299 298 297 296 295 293 289 292 294 294 293 292 291
292 291 285 285 287 287 290 294 293 295 295 295 295 296 296 298 300 301 299 299 300 300 300 302 304 305 304 303 301 304 304 305 305 306 307 307 306 304 305 305 305 304 304 305 307 307 308 308 308 308 307 307 307 306 306 306 307 307 308 308 308 308 306 305 305 304 304 303 301 299 300 300 299 299 298 297 296 295 293 292 290 289 291 291 291 290
Wind_Speed
4 7 10 15 12 9 5 7 7 1 5 9 5 5 4 4 1 2 3 3 3 4 6 7 7 7 9 9 5 9 9 6 9 13 13 11 11 11 11 12 13 13 14 4 4 5 6 6 5 7 7 6 5 5 7 8 6 8 9 9 8 6 7 7 6 5 6 6 6 5 6 6 5 6 5 5 4 4 4 5 5 6 6 6 7 6
6 8 13 7 4 9 9 7 7 4 4 7 7 6 4 3 3 2 3 0 1 4 1 6 8 10 10 9 4 6 10 12 13 13 15 15 13 12 14 14 14 12 0 2 5 6 6 7 7 7 7 6 8 6 6 8 7 7 8 9 8 6 7 7 7 6 6 4 5 5 5 6 6 5 6 5 4 5 5 5 5 6 6 6 6 5
9 15 6 4 4 8 8 7 7 7 4 2 5 3 4 3 2 5 3 2 1 3 5 3 8 9 8 3 1 8 13 9 12 15 17 17 15 13 14 14 13 8 10 7 9 8 8 9 8 8 8 7 8 9 10 8 7 6 7 7 7 6 7 7 7 7 5 3 4 5 5 7 5 3 3 5 4 5 6 5 5 5 6 6 5 5
8 6 6 6 7 9 5 8 9 7 2 3 2 3 3 2 5 3 6 2 0 3 2 6 8 4 5 2 3 4 7 3 8 9 8 10 15 17 18 17 16 16 13 12 12 12 10 10 9 8 8 8 7 7 7 8 8 6 6 6 7 7 7 7 6 6 5 5 5 5 7 5 5 5 5 6 6 6 7 7 5 5 5 5 6 5
4 1 7 8 7 10 8 9 11 8 8 2 4 4 1 1 2 3 3 3 3 1 4 5 2 3 1 2 3 4 4 1 5 7 8 8 9 8 4 5 11 16 15 13 8 9 10 11 12 12 8 8 8 8 8 8 7 6 7 7 7 7 7 7 7 7 8 8 8 7 8 8 9 6 6 7 6 5 6 6 6 5 4 5 6 5
6 6 6 10 6 7 9 9 12 10 6 3 3 6 6 3 3 2 2 3 1 2 2 4 1 4 4 5 7 1 3 5 4 10 11 11 9 9 11 13 12 12 11 12 12 10 9 9 7 7 8 9 8 8 8 7 7 6 6 7 7 7 7 8 8 8 8 8 9 8 8 7 6 6 6 7 8 6 6 5 4 5 4 5 5 5
4 2 7 12 8 7 8 7 6 11 7 7 7 6 6 5 3 2 3 2 1 5 1 1 8 4 4 4 5 6 8 8 1 9 12 10 10 11 12 11 12 13 12 10 8 8 9 8 8 8 9 8 8 6 7 6 6 7 7 8 8 8 7 7 8 8 7 7 7 8 8 8 8 8 2 3 4 6 5 5 6 5 4 4 6 5
5 6 3 6 10 8 7 9 7 11 10 5 3 10 6 4 3 2 0 2 2 2 3 2 3 4 4 7 2 3 7 8 8 11 11 12 12 13 12 11 12 12 12 11 11 9 9 9 10 10 9 8 7 7 8 7 7 8 8 9 8 7 8 7 8 7 7 8 6 6 7 7 8 8 7 6 6 5 5 7 6 5 5 4 4 5
13 6 5 6 8 7 8 4 6 8 8 4 4 10 8 6 5 3 1 2 1 2 6 4 0 1 3 6 1 5 6 9 13 13 13 13 13 14 13 12 11 11 10 9 9 10 9 8 8 6 6 6 7 8 8 8 7 7 8 9 8 8 8 8 8 8 5 6 8 8 7 6 4 6 6 6 5 6 5 8 5 5 5 5 4 4
3 9 7 5 6 8 4 6 10 9 7 3 8 4 3 4 3 5 3 2 3 1 5 4 1 2 6 4 1 3 5 9 11 14 14 14 14 14 13 13 11 9 8 8 7 7 6 5 5 5 6 7 7 6 7 7 8 8 8 9 10 9 7 8 8 7 7 6 7 8 8 10 8 7 5 6 7 6 5 7 6 5 5 4 5 4
1 5 8 5 7 4 7 4 8 8 4 5 10 6 4 3 3 1 2 2 2 4 7 6 4 4 4 6 7 8 8 10 9 6 8 10 12 13 14 13 10 10 9 7 6 7 6 5 5 7 8 8 8 7 8 8 8 8 9 9 10 9 7 8 8 8 8 7 7 8 9 12 12 6 5 8 7 6 6 7 5 5 4 4 4 4
2 0 5 2 8 3 8 4 5 10 5 11 4 5 7 1 3 2 0 2 4 5 5 4 7 5 5 4 4 9 5 6 12 12 14 16 17 17 14 12 10 9 8 7 7 8 9 8 7 8 9 10 10 10 10 9 8 8 8 9 10 8 8 7 7 8 8 8 8 9 10 11 12 13 8 8 9 8 8 7 7 5 5 4 4 4
5 3 2 5 8 11 8 8 4 7 5 9 7 8 11 2 2 3 1 5 5 4 1 3 5 2 6 9 9 8 14 12 10 12 14 17 18 13 10 11 8 8 8 9 8 8 9 9 10 10 11 11 12 10 11 10 8 8 8 9 11 9 8 8 8 8 8 7 8 9 10 9 9 10 9 5 7 6 8 7 7 6 6 5 5 4
5 0 3 3 8 9 10 12 8 7 8 8 12 9 8 5 6 6 2 0 2 4 4 5 1 3 4 9 10 15 15 14 14 14 11 8 7 7 8 7 8 8 9 9 9 8 8 9 9 9 7 7 7 8 9 10 9 7 7 9 10 9 9 8 8 8 8 8 8 8 8 8 8 8 9 7 8 6 6 7 7 7 6 6 6 5
8 6 7 7 6 9 11 10 10 3 7 5 4 10 7 4 5 4 3 5 5 7 1 2 4 5 5 8 1 6 7 6 7 3 3 5 7 8 8 9 8 9 9 9 9 9 8 8 8 8 9 8 6 8 9 9 9 8 8 9 10 9 8 8 8 8 8 7 7 8 9 9 8 8 7 7 6 7 7 5 6 5 5 6 5 5
10 1 5 8 2 11 10 5 6 8 7 3 4 7 7 10 5 5 6 6 4 4 2 2 5 6 6 3 3 4 4 4 5 5 6 7 9 10 10 11 11 11 11 11 10 9 9 9 10 10 10 10 9 10 7 10 10 9 8 9 9 10 9 8 9 8 8 8 8 8 8 8 8 7 7 6 5 5 6 7 6 6 5 5 6 4
3 4 1 12 3 14 10 7 4 8 8 5 7 9 5 5 7 5 2 1 2 2 7 1 3 4 7 8 1 4 4 1 4 6 7 8 10 11 11 11 12 11 11 11 10 10 11 11 11 11 11 9 9 9 9 9 10 11 9 9 9 9 9 9 9 8 7 7 9 8 9 8 8 9 9 9 8 7 6 6 6 6 5 6 5 5
11 3 1 10 9 6 9 12 5 6 6 6 6 6 1 2 4 4 3 2 2 4 5 2 7 3 2 6 4 5 2 2 4 6 6 7 9 12 11 12 12 12 11 11 11 11 12 11 11 7 8 10 10 10 9 9 10 10 9 9 10 9 10 8 8 8 8 8 9 10 10 9 8 9 8 8 9 7 7 6 5 5 6 6 5 5
4 2 2 8 9 6 3 10 5 4 6 10 8 5 8 4 5 2 3 0 1 1 2 1 1 2 6 7 3 4 7 9 8 6 8 10 12 13 12 12 11 11 10 11 11 11 11 11 11 12 9 8 9 10 8 8 10 9 8 9 10 10 9 8 7 8 7 7 6 7 8 9 8 7 8 8 8 7 8 8 6 6 6 6 6 6
1 4 1 2 9 5 5 9 11 10 2 1 7 8 2 6 3 5 6 4 5 3 2 3 1 5 6 6 7 9 10 10 10 10 13 15 16 14 13 12 13 13 11 10 11 11 11 12 13 12 11 10 11 11 8 9 9 11 10 10 9 8 8 8 7 7 9 8 8 8 8 7 7 8 9 9 9 8 8 7 7 7 7 6 6 6
1 1 5 4 7 7 7 8 13 12 11 5 7 7 2 1 1 6 1 3 2 4 4 3 2 5 7 8 6 9 8 13 16 16 14 13 13 12 12 13 12 12 11 10 10 12 12 11 11 11 9 9 8 9 7 7 11 11 10 10 10 10 9 8 7 6 7 8 9 10 11 10 9 9 9 9 8 8 7 6 6 6 7 6 7 7
0 1 3 4 5 10 8 4 3 8 10 5 6 6 7 6 5 9 6 2 3 1 2 4 4 6 10 2 7 6 4 11 15 13 12 10 12 12 11 12 12 12 11 11 10 12 12 11 10 10 9 9 10 10 10 7 9 11 10 10 10 9 8 9 8 7 7 7 8 9 10 10 8 9 9 10 8 8 8 7 7 7 7 8 6 7
4 2 3 6 8 6 2 6 6 10 7 5 8 7 7 4 6 5 5 4 2 1 4 3 1 7 6 4 4 4 2 4 4 3 3 3 6 7 8 8 8 9 12 12 10 12 11 11 11 11 11 12 12 11 10 7 9 10 11 11 10 10 9 9 8 7 7 8 8 9 9 9 9 9 10 10 8 8 7 7 7 7 8 8 7 6
4 0 1 1 2 2 2 1 7 9 9 4 3 3 7 8 7 8 5 6 7 1 1 1 1 4 3 1 3 3 3 4 5 7 8 6 6 7 9 10 10 9 9 9 6 8 11 10 10 9 11 12 11 11 11 9 9 9 10 10 10 10 10 9 9 8 8 8 8 9 9 9 8 10 9 9 7 8 7 7 6 6 8 8 7 7
2 2 3 4 5 4 2 4 3 2 7 6 6 4 6 4 4 2 5 2 3 5 6 6 4 4 4 1 3 1 4 5 5 5 8 8 7 8 8 9 8 8 9 11 10 8 11 11 12 10 8 12 12 12 12 10 9 9 9 10 10 10 10 9 8 9 8 9 10 9 9 9 9 9 9 8 7 8 8 7 7 6 7 8 8 7
2 2 2 5 10 11 10 10 11 10 14 4 3 7 6 9 6 5 4 1 3 1 4 3 3 9 10 4 5 2 4 4 4 5 4 7 9 10 8 9 10 9 9 11 11 9 12 13 12 11 9 10 10 11 12 12 11 10 10 10 10 10 10 10 9 10 10 9 10 9 10 9 9 9 9 8 8 8 8 7 7 7 7 9 9 7
1 1 1 3 6 9 6 2 2 6 4 7 5 11 7 5 8 5 6 5 6 3 5 7 7 5 7 6 3 1 3 6 7 7 9 9 8 9 9 10 10 10 10 12 12 9 9 12 15 14 11 9 9 8 11 11 11 11 10 10 10 11 10 10 10 10 10 9 9 9 9 9 9 8 8 8 8 7 7 7 7 8 8 8 9 9
1 2 2 4 4 7 8 4 7 11 7 4 8 9 9 8 5 7 6 6 5 9 3 5 5 2 7 6 6 4 4 3 4 4 6 9 10 11 11 10 10 10 9 9 12 13 13 13 14 14 13 9 8 7 7 12 11 9 11 11 9 10 10 9 10 11 10 10 9 9 9 8 8 8 8 8 8 8 7 7 7 8 7 8 9 9
0 1 3 1 4 6 7 4 11 10 9 8 11 10 11 9 7 8 7 5 7 5 9 4 6 4 6 7 2 2 3 1 1 2 4 7 9 10 11 12 13 13 12 13 14 15 14 14 12 12 11 12 10 9 7 9 12 10 8 11 11 10 10 11 11 11 11 10 10 9 9 8 8 8 9 9 9 8 8 7 7 8 8 7 7 7
1 5 4 1 7 6 5 5 6 16 6 10 10 12 11 10 11 11 8 5 10 5 5 4 8 9 9 5 1 4 4 4 5 7 8 10 11 12 12 12 13 14 15 15 14 12 10 9 8 10 11 12 15 13 10 8 11 13 12 11 11 11 9 11 12 12 11 10 9 9 9 9 9 9 9 9 9 8 8 8 8 8 8 8 7 8
3 5 1 1 0 2 2 1 4 11 12 9 9 11 12 12 10 6 4 1 0 1 0 2 3 7 6 3 1 1 2 7 9 9 9 9 10 12 12 13 13 15 14 12 9 10 13 12 10 10 10 11 12 14 13 12 10 10 13 12 12 11 10 10 11 12 12 10 10 10 9 9 9 9 10 9 9 8 9 8 8 8 8 8 8 8
3 4 1 1 1 2 1 4 5 8 10 9 6 6 9 8 7 3 5 6 5 5 1 2 0 5 5 1 1 2 6 9 11 10 10 10 11 12 13 13 14 14 13 12 11 10 12 13 13 13 12 12 12 12 11 12 13 11 10 12 13 11 10 9 10 11 11 11 10 10 10 9 10 9 9 9 10 9 8 8 8 9 8 8 8 7
4 2 2 1 1 2 2 2 6 6 7 4 6 8 11 4 2 3 1 3 4 8 7 4 8 5 4 3 5 1 5 7 8 10 10 9 11 12 14 15 15 14 12 12 13 14 13 15 14 14 12 11 12 12 12 12 12 14 11 9 12 11 9 10 10 11 12 11 12 11 10 10 10 10 9 9 10 9 9 9 9 9 9 8 7 7
1 2 1 1 1 2 1 3 3 9 7 6 4 3 4 7 8 6 4 7 5 6 5 6 6 2 3 3 4 6 3 1 2 3 7 14 14 12 11 11 10 8 7 8 9 11 10 9 9 10 11 11 10 10 9 10 10 10 12 11 10 14 10 9 10 11 12 13 12 11 10 10 11 11 10 10 10 10 10 10 9 8 7 8 7 8
1 2 0 1 1 2 1 2 7 7 5 2 2 3 4 1 4 9 1 1 5 3 3 3 5 1 3 3 3 4 3 0 4 5 4 5 10 11 13 12 11 12 13 12 10 9 9 10 9 9 10 10 10 10 11 10 10 10 11 12 11 12 13 10 10 10 12 12 11 10 10 11 11 11 10 10 9 9 10 10 9 8 7 8 9 9
1 1 1 1 1 2 3 3 5 4 3 3 2 2 2 3 3 6 3 1 2 6 4 5 4 1 4 4 2 2 6 5 5 2 3 5 7 10 10 11 11 10 11 13 13 11 10 10 10 10 10 8 9 10 11 11 10 12 10 10 13 12 14 13 12 11 10 11 11 11 11 11 10 10 10 9 9 9 9 9 9 9 6 6 6 5
2 2 1 1 0 4 3 4 2 2 2 3 2 2 1 0 2 5 5 3 3 3 5 3 1 3 5 4 5 5 5 4 5 1 1 6 7 8 12 13 12 13 10 5 5 5 5 7 7 7 8 9 11 12 12 10 10 9 13 11 9 11 13 13 13 11 11 12 11 11 11 10 11 10 9 8 7 6 6 7 7 6 5 8 7 8
3 2 2 1 1 4 6 4 2 2 1 3 2 2 1 1 2 2 3 1 2 4 4 3 3 5 6 6 5 5 4 6 2 3 5 6 7 8 5 2 3 3 5 7 7 7 8 7 7 8 9 10 11 12 10 11 14 15 12 12 12 12 12 11 11 12 12 12 12 12 11 10 11 12 11 11 10 8 6 4 5 6 6 9 9 7
2 3 2 6 3 2 4 6 2 3 1 3 4 5 3 0 1 2 3 2 3 3 4 5 5 5 7 9 8 4 5 3 4 6 7 8 7 6 7 4 5 5 6 8 10 10 10 9 10 10 9 10 10 9 11 13 14 14 14 12 10 11 12 14 15 13 13 13 11 10 10 11 12 14 14 15 15 15 15 13 10 7 5 5 6 7
6 4 2 3 2 0 5 4 1 2 2 0 4 4 4 2 2 3 5 5 1 3 3 4 7 9 6 4 6 7 8 8 7 6 4 9 6 5 7 7 5 6 6 7 6 8 9 8 8 8 11 11 11 11 11 12 14 14 13 15 13 12 13 14 13 12 11 10 10 10 11 11 13 14 13 11 9 9 10 9 8 8 8 6 6 7
2 1 4 4 3 0 6 1 1 2 3 3 4 6 5 0 3 7 7 4 2 2 3 4 4 5 7 8 6 7 7 4 4 1 3 7 6 4 4 3 4 5 8 8 9 10 10 10 12 12 12 10 10 11 12 12 12 12 11 12 12 14 15 13 9 9 10 9 10 11 12 11 12 11 10 10 9 8 8 9 10 9 9 9 7 7
1 2 0 3 4 2 1 5 1 3 3 2 4 5 4 1 3 5 3 1 1 2 2 4 5 6 8 11 4 2 0 0 1 1 6 9 10 8 6 5 5 6 5 5 9 9 8 8 7 8 7 7 10 10 10 11 11 10 10 12 17 16 6 9 9 10 11 12 12 10 10 10 9 12 12 12 13 12 9 7 8 9 10 8 8 9
1 2 0 1 1 1 4 5 2 4 0 2 10 3 2 1 3 1 1 2 3 2 3 4 6 6 6 7 2 2 1 3 3 2 2 3 5 8 7 6 6 7 8 8 6 6 9 7 7 8 9 8 10 9 9 10 11 9 9 9 5 7 9 10 9 10 11 11 12 11 11 10 13 12 11 12 12 13 11 9 8 8 8 9 9 9
0 3 1 2 4 2 2 2 1 1 4 2 2 2 2 1 2 1 2 3 2 2 2 3 5 6 5 4 3 1 1 4 4 3 3 2 2 3 3 4 4 5 6 5 7 8 9 8 7 7 6 7 8 8 9 11 10 8 8 7 6 8 9 8 8 10 10 10 11 12 11 12 11 10 8 10 10 10 12 10 9 9 8 9 9 9
1 1 4 3 2 1 1 2 1 3 3 3 1 1 2 5 3 3 4 1 1 3 0 1 4 4 5 6 4 2 2 2 1 2 4 3 1 2 3 4 4 5 6 7 8 8 7 10 9 8 7 7 8 7 7 7 9 8 8 6 8 9 9 10 10 9 9 10 11 12 11 10 9 9 10 11 12 11 8 9 9 9 6 7 8 8
1 1 1 5 0 2 0 2 1 1 2 6 2 2 3 4 4 1 1 3 1 2 3 2 3 4 5 5 7 2 2 3 4 3 4 4 4 3 3 3 4 5 6 7 7 7 6 7 8 9 8 4 4 4 4 5 7 10 9 6 6 9 9 9 8 9 10 9 9 10 11 11 9 10 10 10 10 12 12 12 10 10 9 8 8 8
2 0 1 4 1 3 2 1 4 2 3 4 4 5 2 3 4 3 4 4 3 3 3 1 3 5 6 4 4 5 4 4 4 3 4 5 5 4 3 3 3 4 6 8 8 8 8 8 8 8 9 8 5 6 7 8 7 7 6 7 8 10 10 11 12 11 9 10 10 10 10 11 9 9 8 8 8 8 9 9 9 9 10 9 8 8
1 1 5 2 2 2 3 1 1 1 0 1 3 5 5 7 7 5 3 2 3 3 2 2 1 4 3 5 4 7 5 3 4 4 5 4 4 4 3 3 4 4 3 5 5 6 7 8 9 9 9 8 7 7 9 9 10 10 9 9 10 10 10 9 8 10 10 11 10 9 10 10 14 13 10 8 9 9 7 7 8 10 11 10 10 10
2 3 1 2 3 0 1 0 2 1 6 6 5 4 3 3 3 3 3 4 5 8 7 6 5 2 4 5 6 9 8 4 3 3 5 5 5 4 3 3 3 3 4 6 6 8 8 8 9 9 8 7 6 8 9 9 9 8 9 9 9 10 11 10 10 9 9 10 10 10 9 10 12 12 11 9 6 5 7 10 11 11 9 8 10 13
1 2 1 4 6 3 4 3 2 3 2 3 5 5 6 5 3 5 9 11 10 9 7 7 7 6 5 3 5 5 7 6 6 5 4 3 3 4 4 4 4 4 4 4 4 4 5 6 9 9 7 6 6 6 7 7 7 7 8 9 9 10 10 10 9 10 10 9 8 9 8 8 7 8 9 10 9 8 4 6 5 1 4 7 7 5
3 1 2 2 5 1 1 1 2 5 4 1 3 6 4 5 4 12 8 6 6 6 5 6 7 8 8 6 4 5 4 5 5 5 5 3 3 2 2 4 5 3 4 4 6 5 6 6 7 8 8 7 7 7 7 6 6 7 7 7 7 8 8 9 9 8 8 8 7 9 9 9 9 8 8 8 8 7 8 5 4 6 3 2 4 7
Wind_Direction
136 181 191 203 203 184 148 156 165 156 150 143 124 149 176 149 267 262 265 252 190 110 194 184 204 221 231 232 193 192 175 184 170 177 182 187 189 198 207 210 211 212 220 203 189 179 180 175 171 169 180 179 175 175 160 150 154 157 156 154 161 163 152 140 134 132 142 150 142 133 143 135 136 126 118 106 105 114 135 134 126 118 111 106 99 97
152 205 221 197 164 160 163 148 176 92 75 134 132 154 184 151 182 225 187 250 296 180 263 191 188 217 223 228 164 173 173 180 181 184 190 192 196 199 204 210 214 217 26 163 202 192 180 181 176 172 182 174 171 178 164 162 163 163 157 161 157 160 153 137 140 149 165 168 162 143 144 136 132 128 125 119 128 137 124 114 112 106 102 96 100 105
195 213 193 159 165 132 140 148 175 182 118 66 127 134 127 251 255 288 270 245 245 129 255 165 184 223 244 301 181 181 186 194 191 187 188 189 196 201 205 208 210 205 218 209 218 199 195 186 179 179 183 186 185 175 172 164 151 159 159 155 154 163 144 137 149 152 155 140 144 143 146 142 109 54 91 121 135 120 107 89 86 90 94 100 97 108
208 230 159 160 127 128 136 150 154 201 162 115 84 69 157 237 149 245 281 10 263 153 228 170 177 264 314 308 190 213 191 206 209 211 215 208 197 197 200 198 198 205 209 209 199 200 190 187 183 182 184 181 173 172 175 163 158 159 157 154 154 151 140 142 155 148 129 116 97 85 115 95 101 133 124 101 98 100 96 84 76 68 89 96 101 103
201 211 162 139 144 135 151 158 156 166 207 119 139 141 173 127 179 142 216 315 325 50 94 101 53 329 278 221 275 241 215 211 209 221 228 228 228 228 250 224 211 209 208 212 200 198 192 190 192 189 174 162 178 179 174 169 166 163 163 154 147 141 137 139 144 136 128 114 97 98 82 92 89 78 97 102 84 89 99 94 73 73 84 97 101 100
263 270 155 144 156 149 142 168 178 154 156 176 223 172 189 187 230 296 347 38 34 244 308 183 338 286 276 262 227 233 151 225 209 206 223 221 215 209 213 211 208 219 219 213 209 202 199 197 181 178 173 174 180 178 171 166 163 149 147 140 133 130 132 141 141 146 143 139 135 131 125 120 113 117 122 129 136 125 109 103 99 75 74 96 92 90
197 270 169 166 158 160 157 166 186 155 161 153 236 179 177 167 171 61 303 67 69 192 287 57 181 259 323 271 220 189 198 212 196 213 222 223 217 211 216 210 204 209 209 213 215 201 195 189 186 185 183 178 175 167 156 153 153 146 143 141 139 138 135 138 145 153 141 132 141 143 139 136 138 131 88 90 96 111 99 97 89 83 63 65 95 85
163 222 194 171 162 160 154 175 204 160 139 203 216 173 160 152 123 174 141 123 218 248 302 37 129 206 292 285 252 169 186 211 223 224 223 220 215 217 218 212 211 210 208 204 205 196 193 190 189 186 181 174 164 145 153 154 152 151 148 144 142 140 142 147 149 152 151 140 138 123 123 132 139 138 136 127 105 93 106 98 94 91 75 66 75 94
165 204 178 185 177 171 183 172 147 149 142 213 190 160 175 166 167 158 153 273 228 39 287 324 115 162 253 260 351 149 175 226 230 225 223 221 217 217 218 217 216 213 210 205 200 192 188 187 182 176 166 152 139 148 158 159 154 147 146 141 140 142 144 147 151 146 145 139 139 133 128 110 86 109 117 115 105 106 104 101 92 90 88 78 64 70
175 195 185 162 169 189 149 152 149 151 128 215 150 126 128 138 128 162 167 246 297 85 253 254 228 181 280 274 113 173 227 231 225 220 222 216 216 214 214 216 213 206 200 196 191 180 169 167 158 145 130 140 141 141 142 146 148 150 147 146 147 147 147 146 145 137 127 125 125 125 130 121 115 112 106 106 115 111 111 106 101 98 96 96 86 74
188 180 161 169 188 162 143 161 157 163 174 143 125 98 62 56 123 112 80 131 59 245 247 224 230 148 275 257 187 165 218 210 222 230 221 221 224 220 217 210 203 199 190 185 169 163 160 155 142 138 146 142 138 141 144 148 152 151 152 150 150 147 141 145 140 131 125 124 127 127 127 127 124 111 133 126 123 124 116 117 116 113 109 97 101 91
253 305 164 209 129 162 136 143 183 174 162 140 129 128 107 32 33 93 330 62 183 262 259 217 193 171 194 288 256 230 242 209 200 207 204 207 213 213 206 201 197 187 181 170 162 161 156 155 148 149 154 156 153 149 150 151 151 153 154 151 140 136 143 137 128 123 128 131 132 133 135 138 144 147 162 151 148 147 137 134 131 127 113 103 91 80
278 213 245 150 158 157 161 142 199 192 164 160 128 118 153 224 89 259 94 217 207 178 261 192 141 49 260 236 242 227 228 227 210 216 209 206 213 207 194 192 184 173 167 171 173 165 164 165 161 166 167 162 160 159 152 149 149 151 150 151 138 131 138 132 129 128 133 134 139 141 139 142 148 145 143 158 147 151 142 141 138 142 133 128 101 95
253 349 206 246 160 184 166 165 165 177 202 153 166 163 142 143 178 196 251 143 322 290 234 154 234 273 248 290 240 241 239 219 214 216 221 215 207 177 177 175 176 176 176 176 176 173 165 164 168 165 151 152 151 159 156 149 150 151 150 147 145 142 139 132 128 131 133 144 148 140 135 140 146 150 150 158 152 153 146 147 147 148 147 141 141 128
163 231 243 177 200 168 185 186 171 139 139 184 82 151 169 117 157 174 191 178 201 198 240 271 110 230 139 235 202 244 268 259 230 216 184 158 149 150 154 166 169 175 180 178 180 175 161 155 151 151 153 154 159 168 162 155 149 150 152 153 151 130 133 133 132 138 143 147 133 132 143 146 146 153 147 151 153 149 146 144 137 138 139 135 136 129
203 219 250 185 241 165 183 170 125 118 128 218 143 87 133 208 133 138 197 141 186 227 281 170 194 188 183 242 267 284 274 252 183 162 140 149 141 146 161 175 182 183 181 180 177 161 151 151 158 156 156 167 175 169 165 160 153 153 156 153 147 134 136 138 143 150 150 143 144 139 134 143 145 141 134 134 134 138 143 143 141 142 138 131 123 117
123 224 265 174 245 174 175 156 185 146 168 198 130 188 206 157 104 90 64 71 109 58 248 186 310 286 305 316 349 1 61 23 141 156 156 159 161 160 174 179 183 183 180 176 170 163 160 165 169 165 172 171 170 170 173 166 157 155 152 151 143 142 144 148 151 150 146 143 135 141 148 148 150 147 153 151 146 143 139 137 137 134 133 119 114 116
154 228 277 169 193 253 171 169 180 188 142 123 183 229 148 100 104 132 178 355 69 162 256 124 189 249 85 257 333 20 56 188 178 172 170 159 160 174 183 181 180 180 179 175 168 166 170 172 167 157 185 179 172 172 169 162 157 155 154 148 141 146 144 150 148 134 143 151 156 149 148 153 153 152 145 139 140 142 137 133 127 129 121 119 121 112
129 172 240 201 179 181 173 156 190 215 170 163 181 190 139 211 201 307 96 156 119 210 263 301 267 259 183 242 330 270 191 204 196 171 159 171 178 186 181 179 174 173 175 175 169 165 172 171 170 176 199 186 174 170 166 156 153 152 151 147 149 150 149 145 138 131 136 150 153 142 146 146 140 138 135 134 139 143 142 142 144 133 123 115 112 110
25 140 292 215 183 163 158 169 194 185 304 9 134 177 189 111 151 137 195 171 119 230 94 283 49 216 212 227 202 232 202 185 175 180 195 189 188 182 180 177 176 176 176 170 169 169 172 174 179 185 184 181 172 169 166 159 152 152 149 146 146 140 138 141 139 140 142 143 135 132 133 131 136 140 140 145 146 146 145 146 139 131 123 125 112 112
327 129 163 212 181 123 190 198 195 172 167 160 165 171 179 349 217 107 36 128 179 168 176 171 228 278 257 215 197 227 192 189 183 191 196 193 191 185 179 174 174 173 169 169 166 166 168 170 172 174 174 168 159 162 162 165 158 154 148 148 146 145 146 148 148 143 142 135 136 140 143 142 142 141 141 142 146 139 141 138 133 129 127 115 116 121
345 17 162 158 147 197 204 192 141 161 173 144 141 180 163 105 132 158 227 5 93 91 229 127 231 266 265 179 218 232 206 189 199 195 191 190 183 179 177 177 172 168 168 168 164 163 165 164 165 162 158 158 161 166 168 163 157 154 154 151 146 143 149 147 150 148 142 135 139 142 139 138 138 140 143 143 143 137 138 135 133 134 126 118 126 122
153 156 100 165 197 180 159 146 156 158 171 159 152 190 179 141 112 124 142 217 53 236 127 168 121 267 237 208 216 254 183 194 192 171 181 170 174 174 173 167 164 166 169 172 162 162 162 162 163 164 165 165 166 167 165 160 159 157 153 149 150 149 150 149 148 144 141 138 139 139 136 135 139 141 143 141 137 134 132 131 131 134 126 124 121 115
153 107 32 327 50 123 352 1 142 153 143 142 237 128 153 181 170 160 163 182 167 206 31 317 235 252 288 234 252 242 214 158 156 167 165 161 159 164 161 164 165 160 164 167 153 153 160 159 155 155 164 164 166 168 171 163 157 155 153 151 150 149 144 142 144 142 139 136 134 134 133 134 136 139 141 137 134 130 129 130 128 127 118 119 121 116
117 285 117 117 107 162 62 47 58 183 161 190 193 191 186 146 132 147 106 109 137 222 172 118 226 284 272 333 340 119 141 147 154 164 157 151 150 150 152 157 160 158 158 162 162 151 157 158 164 171 172 163 163 169 169 166 159 155 152 150 151 146 144 142 142 140 139 139 136 137 135 136 139 140 138 130 127 126 128 128 126 121 118 123 118 119
138 200 104 131 160 169 181 173 181 183 191 174 160 163 189 165 163 115 168 106 162 259 126 139 247 254 276 332 33 73 129 127 151 147 136 143 148 148 146 153 158 164 165 163 165 156 163 167 169 174 180 162 160 168 166 164 161 157 156 154 146 142 144 144 144 142 140 141 139 139 139 140 140 139 134 127 123 126 128 129 127 125 123 127 123 118
190 153 139 149 162 188 201 197 33 82 92 177 184 168 192 190 175 143 113 108 191 199 176 222 184 267 304 289 314 279 173 163 171 159 152 145 141 140 148 154 162 166 169 167 168 168 165 169 173 176 184 172 155 166 164 156 157 158 155 152 145 146 147 147 144 143 142 143 140 141 145 144 140 134 130 127 125 124 124 125 130 129 130 130 129 129
36 347 251 157 196 208 195 186 165 151 159 145 138 179 181 181 173 152 147 202 175 107 262 262 193 155 259 277 264 245 229 196 176 155 142 142 144 151 154 149 149 160 168 167 172 178 177 175 174 177 180 176 156 151 167 156 150 156 155 149 145 148 148 148 145 145 145 144 144 145 145 139 130 126 123 121 121 121 122 124 124 123 122 124 127 130
142 261 270 129 264 226 228 243 158 150 162 165 162 164 178 181 152 172 203 200 146 181 208 243 159 193 257 243 252 243 236 229 117 130 124 130 131 139 147 151 157 166 175 181 184 182 181 179 175 167 169 178 170 161 158 157 147 144 149 148 147 150 154 150 147 147 146 147 146 148 142 132 124 123 123 123 122 122 123 122 121 119 119 119 120 117
151 261 244 224 278 291 241 220 220 150 154 151 161 171 170 157 183 184 198 182 182 209 214 186 178 222 231 244 234 226 184 142 126 130 128 138 151 150 153 159 166 175 184 187 185 180 172 166 160 164 163 168 174 169 158 158 155 152 154 154 147 151 157 154 153 148 148 148 148 144 141 133 131 132 128 128 128 128 126 124 123 120 117 117 119 120
145 277 95 48 350 286 319 189 247 151 148 158 172 166 164 174 180 193 138 157 103 350 68 116 162 275 273 207 222 263 139 120 124 134 149 149 150 158 161 168 175 183 190 184 165 168 173 173 172 172 170 166 167 173 167 162 158 156 155 155 150 155 163 161 155 152 147 146 147 147 140 135 136 136 135 133 127 127 127 124 122 118 116 118 121 122
152 264 41 51 272 301 4 147 212 161 146 139 156 154 139 131 147 185 157 203 154 201 121 115 167 267 272 225 152 129 144 146 149 149 149 159 162 161 170 178 183 187 184 178 176 172 172 173 175 179 177 171 168 165 167 164 156 156 164 157 151 155 160 160 155 150 145 144 149 151 146 140 138 137 135 133 133 133 130 127 124 123 125 125 121 118
173 176 233 79 120 268 282 102 130 101 84 117 195 193 169 156 171 164 337 180 195 145 119 143 231 218 215 167 109 173 166 165 155 160 149 154 166 170 177 186 190 189 182 174 179 181 180 181 181 180 176 172 173 170 170 162 158 159 158 163 151 144 160 160 156 150 145 150 154 157 151 144 140 137 136 136 136 136 135 132 127 126 128 126 124 120
131 182 246 125 188 232 342 134 139 101 154 223 238 190 149 162 151 152 195 192 202 153 191 198 216 226 184 169 157 171 133 236 197 200 174 163 164 175 183 192 194 183 175 185 186 186 182 173 174 177 180 178 172 164 156 162 158 153 151 153 155 148 157 157 157 154 154 156 160 158 150 144 139 141 143 143 143 142 139 135 133 131 125 123 122 123
143 66 52 116 117 190 33 92 104 158 220 240 287 219 207 254 162 157 147 218 191 225 313 274 253 280 98 108 130 135 133 131 137 151 154 176 167 172 180 183 183 182 185 183 183 183 178 175 168 170 172 173 164 152 150 156 153 151 154 152 155 153 149 159 158 163 161 158 155 149 146 146 147 145 146 144 141 141 140 136 133 132 136 139 143 144
45 53 359 8 128 56 68 92 134 219 240 289 313 84 187 113 148 100 58 341 228 200 196 241 243 198 136 83 61 130 117 124 92 58 156 179 182 168 169 187 191 185 186 190 186 180 172 172 171 170 172 155 149 153 161 166 157 150 150 160 161 160 157 159 166 165 165 152 152 153 155 150 145 139 139 138 140 142 140 139 139 134 126 115 105 99
120 78 111 278 76 146 183 119 160 287 26 6 22 23 34 35 177 150 171 263 226 205 173 233 101 116 110 112 129 134 135 88 74 57 264 187 192 195 186 189 183 192 191 158 144 147 138 134 137 148 151 159 162 163 171 154 134 136 147 157 162 165 160 160 163 167 164 154 156 155 153 149 141 135 126 120 113 108 118 121 113 112 120 121 127 134
129 188 204 55 287 127 123 58 27 38 134 274 225 291 255 189 213 202 108 261 265 224 200 192 175 147 124 126 124 140 117 63 37 262 231 223 200 199 223 203 173 142 116 124 127 131 141 145 136 141 154 161 168 168 157 147 145 149 162 167 169 167 158 158 168 165 163 159 160 159 153 139 131 124 116 112 118 112 92 88 118 135 145 142 143 142
84 103 227 201 222 62 59 112 166 131 243 216 266 277 276 261 261 182 82 240 272 213 199 183 183 176 150 145 157 137 80 121 241 249 222 190 205 198 188 189 166 159 141 146 149 149 153 158 153 147 147 156 161 161 154 146 148 156 166 159 165 170 169 171 171 171 165 162 161 146 134 133 134 137 147 158 155 155 156 154 153 145 132 131 127 130
300 303 109 88 50 87 134 92 123 203 112 334 253 279 305 25 170 98 147 253 267 288 234 192 193 173 168 150 153 131 138 168 231 248 206 190 182 186 174 175 160 149 137 132 137 145 145 141 135 148 157 164 163 155 156 154 157 159 160 172 167 171 184 185 179 162 146 145 137 130 133 139 145 154 156 146 138 131 131 135 132 139 136 131 132 135
298 339 52 151 141 58 83 102 355 328 280 262 266 300 348 28 79 109 188 233 240 246 238 196 230 180 159 152 171 152 218 172 200 219 154 144 140 188 206 181 163 144 148 145 145 141 144 158 161 167 168 166 159 161 161 161 161 161 165 161 172 191 190 180 157 142 133 119 121 132 140 146 149 135 117 124 128 128 132 144 145 140 139 135 132 131
3 85 347 64 38 73 153 98 180 233 239 280 278 291 281 62 95 185 233 195 162 264 249 192 192 199 175 176 159 348 234 230 263 160 158 169 176 177 169 160 119 93 88 109 135 139 143 154 161 158 153 149 157 160 162 163 168 164 161 167 187 193 154 86 111 130 136 140 132 131 134 133 122 128 141 141 140 142 142 145 146 146 142 140 143 142
210 102 311 69 187 79 36 78 41 100 297 76 316 9 56 109 221 208 305 312 216 224 230 238 190 207 183 185 239 327 327 40 55 98 158 164 162 168 170 158 151 137 127 121 128 138 142 147 156 160 155 156 159 162 165 168 168 167 166 178 156 98 120 146 140 131 130 126 127 131 133 135 141 149 149 150 148 140 140 144 143 141 142 142 142 140
177 83 240 264 190 124 75 96 108 209 254 292 36 133 281 215 306 222 124 328 308 234 244 228 225 189 196 147 170 358 25 78 68 97 99 122 131 126 128 121 106 107 109 119 139 149 148 150 152 146 150 157 163 166 168 169 167 163 160 158 141 132 132 129 121 122 122 123 130 135 141 145 144 140 139 135 134 136 139 147 148 146 153 153 148 146
282 208 183 137 222 112 170 201 243 237 246 270 194 271 265 283 279 208 173 161 29 326 248 192 217 187 153 137 122 118 56 29 118 134 134 140 115 122 140 147 146 140 133 133 142 149 150 149 151 147 151 162 166 169 170 171 160 148 147 162 151 141 135 124 124 123 128 135 140 142 141 137 137 134 139 144 143 139 142 145 147 143 154 154 151 152
337 181 207 85 170 236 168 160 259 351 342 340 314 238 277 313 326 44 48 42 18 262 253 224 172 154 135 147 121 76 105 147 113 93 99 101 106 93 90 92 94 109 112 111 122 143 140 134 134 138 136 130 142 122 99 84 127 146 160 144 113 109 109 111 118 129 135 137 138 138 138 138 131 135 143 150 154 151 154 155 161 154 159 164 163 163
270 202 78 108 199 69 87 329 44 344 319 3 342 334 333 352 337 336 358 23 342 349 352 333 157 145 142 120 117 126 116 121 118 119 115 112 117 130 131 126 130 140 144 141 146 131 123 129 129 137 142 144 138 113 99 99 100 114 132 127 123 132 136 139 142 143 142 140 143 142 142 137 137 140 145 151 151 151 152 157 158 159 162 166 165 167
360 122 71 87 91 117 184 220 342 310 240 329 24 23 1 348 354 358 354 346 358 26 61 5 73 89 107 108 119 111 104 95 122 131 122 119 119 115 121 126 131 110 94 116 125 123 125 134 139 144 149 151 144 120 115 124 141 159 151 141 143 143 142 142 140 143 149 150 145 142 142 144 144 144 152 162 159 152 151 161 167 166 167 171 173 169
260 351 150 175 97 327 6 340 306 47 48 32 16 23 343 317 322 2 25 47 39 44 33 43 47 86 101 121 115 115 116 126 126 129 127 123 118 118 116 116 108 117 123 131 142 143 148 142 144 152 153 145 131 126 133 145 151 147 141 149 148 145 146 156 151 141 144 150 148 148 153 152 158 158 154 153 152 157 169 174 177 180 188 196 176 172
52 46 282 89 79 121 168 202 140 104 71 347 357 351 336 333 331 40 30 31 21 28 21 54 49 44 59 72 112 117 128 142 131 128 122 114 122 122 123 127 137 125 109 109 107 109 116 134 140 145 137 122 115 117 127 137 138 142 151 153 158 156 153 148 147 148 152 153 147 137 137 134 138 143 148 154 156 147 117 25 51 9 193 182 196 216
81 201 107 100 150 162 252 213 130 121 96 275 278 317 334 336 36 57 31 20 13 23 23 52 56 40 36 25 21 94 112 111 115 115 108 90 91 112 139 146 144 130 121 129 122 118 121 121 125 123 126 128 125 129 141 147 137 140 152 156 155 154 146 145 142 142 141 141 144 146 141 143 148 155 157 157 148 148 149 133 40 42 86 146 174 174